Tracking 28081 objects as of 27-Sep-2023
HD Live streaming from Space Station
objects crossing your sky now

COSMOS 2539

Track COSMOS 2539 now!


NORAD ID: 44457
Int'l Code: 2019-048A
Perigee: 35,793.4 km
Apogee: 35,798.6 km
Inclination: 0.0 °
Period: 1,436.2 minutes
Semi major axis: 42166 km
RCS: Unknown
Launch date: August 5, 2019
Source: Commonwealth of Independent States (former USSR) (CIS)
Launch site: TYURATAM MISSILE AND SPACE COMPLEX (TTMTR)
Your satellite tracking list
Your tracking list is empty




NASA's NSSDC Master Catalog

Two Line Element Set (TLE):
1 44457U 19048A   23268.98485458  .00000068  00000-0  00000-0 0  9992
2 44457   0.0119 141.1254 0000623 284.5404 305.4150  1.00263724 15237
Source of the keplerian elements: AFSPC